PSSDX SBCY-SBGO

Flight info

Callsign PSSDX
Flight time N/A
Altitude 25000
Route KOKLI UZ8 UKBEB
Aircraft P46T/L-SBDGRWY/SB1

Departure

Time 2026-04-22 18:56
Airport Várzea Grande–Marechal Rondon International Airport (SBCY)

Arrival

Time N/A
Airport Santa Genoveva International Airport (SBGO)
Time Latitude Longitude Altitude Speed Heading
2026-04-22 18:43 -15.66105 -56.11469 599 ft 0 kts 60°
2026-04-22 18:51 -15.66115 -56.11437 599 ft 11 kts 149°
2026-04-22 18:51 -15.66210 -56.11388 599 ft 19 kts 154°
2026-04-22 18:51 -15.66223 -56.11306 599 ft 11 kts 145°
2026-04-22 18:51 -15.66250 -56.11271 599 ft 0 kts 89°
2026-04-22 18:54 -15.66250 -56.11270 599 ft 1 kts 86°
2026-04-22 18:54 -15.66231 -56.11217 596 ft 17 kts 56°
2026-04-22 18:55 -15.66170 -56.11203 594 ft 0 kts 336°
2026-04-22 18:55 -15.66033 -56.11276 594 ft 45 kts 334°
2026-04-22 18:55 -15.65629 -56.11499 596 ft 84 kts 333°
2026-04-22 18:56 -15.65010 -56.11810 638 ft 112 kts 334°
2026-04-22 18:56 -15.64249 -56.12145 818 ft 129 kts 334°
2026-04-22 18:56 -15.63345 -56.12554 961 ft 148 kts 333°
2026-04-22 18:56 -15.62482 -56.12976 1529 ft 131 kts 334°
2026-04-22 18:57 -15.61646 -56.13413 1874 ft 137 kts 333°
2026-04-22 18:57 -15.60796 -56.13857 2285 ft 137 kts 333°
2026-04-22 18:57 -15.59942 -56.14305 2682 ft 137 kts 334°
2026-04-22 18:57 -15.59089 -56.14756 3092 ft 138 kts 333°
2026-04-22 18:58 -15.58363 -56.15324 3455 ft 139 kts 298°
2026-04-22 18:58 -15.58310 -56.16299 3920 ft 140 kts 258°
2026-04-22 18:58 -15.58518 -56.17301 4378 ft 144 kts 256°
2026-04-22 18:58 -15.59113 -56.18094 4731 ft 142 kts 201°
2026-04-22 18:59 -15.60078 -56.18148 5087 ft 140 kts 162°
2026-04-22 18:59 -15.60865 -56.17608 5479 ft 136 kts 125°
2026-04-22 18:59 -15.61181 -56.16711 5881 ft 133 kts 96°
2026-04-22 18:59 -15.61303 -56.15754 6290 ft 134 kts 97°
2026-04-22 19:00 -15.61448 -56.14810 6670 ft 134 kts 97°
2026-04-22 19:00 -15.61592 -56.13842 7033 ft 135 kts 97°
2026-04-22 19:00 -15.61732 -56.12886 7395 ft 135 kts 97°
2026-04-22 19:00 -15.61870 -56.11919 7745 ft 136 kts 97°
2026-04-22 19:01 -15.62009 -56.10948 8099 ft 136 kts 97°
2026-04-22 19:01 -15.62145 -56.09973 8451 ft 137 kts 97°
2026-04-22 19:01 -15.62278 -56.08993 8826 ft 138 kts 97°
2026-04-22 19:01 -15.62410 -56.08009 9196 ft 138 kts 97°
2026-04-22 19:02 -15.62540 -56.07023 9559 ft 139 kts 97°
2026-04-22 19:02 -15.62668 -56.06029 9919 ft 139 kts 97°
2026-04-22 19:02 -15.62793 -56.05029 10252 ft 140 kts 97°
2026-04-22 19:02 -15.62920 -56.04022 10585 ft 142 kts 97°
2026-04-22 19:03 -15.63043 -56.03005 10908 ft 142 kts 97°
2026-04-22 19:03 -15.63167 -56.01982 11245 ft 143 kts 97°
2026-04-22 19:03 -15.63291 -56.00951 11584 ft 145 kts 97°
2026-04-22 19:03 -15.63415 -55.99910 11922 ft 146 kts 97°
2026-04-22 19:04 -15.63535 -55.98861 12242 ft 147 kts 97°
2026-04-22 19:04 -15.63654 -55.97802 12585 ft 148 kts 97°
2026-04-22 19:04 -15.63771 -55.96736 12928 ft 149 kts 97°
2026-04-22 19:04 -15.63887 -55.95661 13263 ft 151 kts 97°
2026-04-22 19:05 -15.64002 -55.94578 13601 ft 152 kts 97°
2026-04-22 19:05 -15.64116 -55.93487 13922 ft 153 kts 97°
2026-04-22 19:05 -15.64230 -55.92389 14231 ft 154 kts 97°
2026-04-22 19:05 -15.64351 -55.91285 14534 ft 155 kts 99°
2026-04-22 19:06 -15.64540 -55.90184 14827 ft 155 kts 101°
2026-04-22 19:06 -15.64732 -55.89077 15133 ft 156 kts 100°
2026-04-22 19:06 -15.64918 -55.87962 15420 ft 157 kts 100°
2026-04-22 19:07 -15.65287 -55.85711 16041 ft 159 kts 100°
2026-04-22 19:07 -15.65473 -55.84575 16360 ft 160 kts 100°
2026-04-22 19:07 -15.65660 -55.83433 16671 ft 161 kts 100°
2026-04-22 19:07 -15.65849 -55.82284 16979 ft 162 kts 100°
2026-04-22 19:08 -15.66037 -55.81128 17278 ft 163 kts 100°
2026-04-22 19:08 -15.66228 -55.79964 17581 ft 164 kts 100°
2026-04-22 19:08 -15.66419 -55.78792 17883 ft 165 kts 100°
2026-04-22 19:08 -15.66610 -55.77626 18182 ft 167 kts 100°
2026-04-22 19:09 -15.66804 -55.76436 18443 ft 168 kts 100°
2026-04-22 19:09 -15.66999 -55.75242 18712 ft 168 kts 100°
2026-04-22 19:09 -15.67132 -55.74431 18887 ft 169 kts 100°
2026-04-22 19:09 -15.67328 -55.73229 19161 ft 169 kts 101°
2026-04-22 19:10 -15.67525 -55.72023 19419 ft 170 kts 101°
2026-04-22 19:10 -15.67722 -55.70811 19681 ft 171 kts 101°
2026-04-22 19:10 -15.67920 -55.69596 19945 ft 171 kts 101°
2026-04-22 19:10 -15.68120 -55.68375 20203 ft 172 kts 101°
2026-04-22 19:11 -15.68320 -55.67147 20469 ft 173 kts 101°
2026-04-22 19:11 -15.68522 -55.65913 20741 ft 174 kts 101°
2026-04-22 19:11 -15.68722 -55.64676 21017 ft 174 kts 101°
2026-04-22 19:11 -15.68924 -55.63433 21280 ft 175 kts 101°
2026-04-22 19:12 -15.69126 -55.62183 21543 ft 176 kts 102°
2026-04-22 19:12 -15.69332 -55.60929 21804 ft 177 kts 102°
2026-04-22 19:12 -15.69538 -55.59667 22073 ft 178 kts 102°
2026-04-22 19:12 -15.69742 -55.58400 22334 ft 179 kts 102°
2026-04-22 19:13 -15.69949 -55.57126 22604 ft 179 kts 102°
2026-04-22 19:13 -15.70157 -55.55847 22861 ft 180 kts 102°
2026-04-22 19:13 -15.70366 -55.54561 23120 ft 181 kts 102°
2026-04-22 19:13 -15.70575 -55.53267 23383 ft 182 kts 102°
2026-04-22 19:14 -15.70787 -55.51966 23628 ft 183 kts 102°
2026-04-22 19:14 -15.70998 -55.50664 23847 ft 183 kts 102°
2026-04-22 19:14 -15.71209 -55.49361 24073 ft 183 kts 101°
2026-04-22 19:14 -15.71421 -55.48056 24293 ft 184 kts 101°
2026-04-22 19:15 -15.71633 -55.46747 24514 ft 184 kts 101°
2026-04-22 19:15 -15.71845 -55.45436 24733 ft 184 kts 101°
2026-04-22 19:15 -15.72057 -55.44122 24947 ft 185 kts 100°
2026-04-22 19:15 -15.72277 -55.42777 25013 ft 195 kts 100°
2026-04-22 19:16 -15.72511 -55.41346 25027 ft 206 kts 100°
2026-04-22 19:16 -15.72757 -55.39843 25028 ft 216 kts 100°
2026-04-22 19:16 -15.73011 -55.38281 25026 ft 223 kts 100°
2026-04-22 19:16 -15.73272 -55.36668 25026 ft 229 kts 100°
2026-04-22 19:17 -15.73539 -55.35019 25030 ft 234 kts 100°
2026-04-22 19:17 -15.73810 -55.33343 25027 ft 237 kts 100°
2026-04-22 19:17 -15.74085 -55.31645 25033 ft 240 kts 100°
2026-04-22 19:17 -15.74362 -55.29926 25026 ft 242 kts 100°
2026-04-22 19:18 -15.74640 -55.28196 25030 ft 244 kts 100°
2026-04-22 19:18 -15.74918 -55.26477 25029 ft 245 kts 100°
2026-04-22 19:18 -15.75199 -55.24730 25029 ft 246 kts 100°
2026-04-22 19:18 -15.75481 -55.22975 25034 ft 247 kts 100°
2026-04-22 19:19 -15.75764 -55.21214 25032 ft 248 kts 100°
2026-04-22 19:19 -15.76048 -55.19446 25030 ft 248 kts 100°
2026-04-22 19:19 -15.76332 -55.17681 25033 ft 248 kts 100°
2026-04-22 19:19 -15.76615 -55.15914 25029 ft 248 kts 100°
2026-04-22 19:20 -15.76898 -55.14147 25028 ft 248 kts 100°
2026-04-22 19:20 -15.77182 -55.12375 25028 ft 249 kts 100°
2026-04-22 19:20 -15.77467 -55.10602 25031 ft 249 kts 100°
2026-04-22 19:20 -15.77750 -55.08831 25022 ft 249 kts 100°
2026-04-22 19:21 -15.78034 -55.07056 25028 ft 249 kts 100°
2026-04-22 19:21 -15.78318 -55.05280 25024 ft 249 kts 100°
2026-04-22 19:21 -15.78600 -55.03505 25023 ft 250 kts 100°
2026-04-22 19:21 -15.78888 -55.01722 25018 ft 251 kts 100°
2026-04-22 19:22 -15.79172 -54.99938 25015 ft 250 kts 100°
2026-04-22 19:22 -15.79456 -54.98153 25023 ft 251 kts 100°
2026-04-22 19:22 -15.79743 -54.96364 25022 ft 251 kts 100°
2026-04-22 19:22 -15.80026 -54.94574 25013 ft 252 kts 100°
2026-04-22 19:23 -15.80313 -54.92779 25015 ft 252 kts 100°
2026-04-22 19:23 -15.80599 -54.90983 25008 ft 251 kts 100°
2026-04-22 19:23 -15.80882 -54.89196 25011 ft 251 kts 100°
2026-04-22 19:23 -15.81169 -54.87413 25010 ft 251 kts 100°
2026-04-22 19:24 -15.81451 -54.85631 25009 ft 251 kts 100°
2026-04-22 19:24 -15.81734 -54.83835 25011 ft 251 kts 100°
2026-04-22 19:24 -15.82020 -54.82045 25012 ft 251 kts 101°
2026-04-22 19:24 -15.82306 -54.80253 25007 ft 251 kts 100°
2026-04-22 19:25 -15.82588 -54.78463 25006 ft 251 kts 100°
2026-04-22 19:25 -15.82871 -54.76675 25004 ft 251 kts 100°
2026-04-22 19:25 -15.83154 -54.74888 25002 ft 251 kts 100°
2026-04-22 19:25 -15.83437 -54.73103 25000 ft 250 kts 100°
2026-04-22 19:26 -15.83720 -54.71320 25001 ft 251 kts 100°
2026-04-22 19:26 -15.84003 -54.69532 24999 ft 251 kts 100°
2026-04-22 19:26 -15.84284 -54.67749 25002 ft 251 kts 100°
2026-04-22 19:26 -15.84567 -54.65959 25005 ft 250 kts 100°
2026-04-22 19:27 -15.84848 -54.64176 24998 ft 250 kts 100°
2026-04-22 19:27 -15.85125 -54.62426 24999 ft 249 kts 100°
2026-04-22 19:27 -15.85410 -54.60619 24998 ft 249 kts 100°
2026-04-22 19:27 -15.85690 -54.58845 25000 ft 249 kts 100°
2026-04-22 19:28 -15.85969 -54.57073 24998 ft 249 kts 100°
2026-04-22 19:28 -15.86249 -54.55298 24994 ft 249 kts 100°
2026-04-22 19:28 -15.86527 -54.53527 24999 ft 249 kts 100°
2026-04-22 19:28 -15.86806 -54.51755 24995 ft 249 kts 100°
2026-04-22 19:29 -15.87084 -54.49983 24997 ft 249 kts 100°
2026-04-22 19:29 -15.87363 -54.48215 24997 ft 249 kts 100°
2026-04-22 19:29 -15.87642 -54.46440 24993 ft 249 kts 100°
2026-04-22 19:29 -15.87919 -54.44668 24994 ft 249 kts 100°
2026-04-22 19:30 -15.88103 -54.43495 24993 ft 249 kts 100°
2026-04-22 19:30 -15.88476 -54.41123 24995 ft 249 kts 100°
2026-04-22 19:30 -15.88754 -54.39350 24992 ft 249 kts 100°
2026-04-22 19:30 -15.89029 -54.37594 24999 ft 249 kts 100°
2026-04-22 19:31 -15.89306 -54.35821 24994 ft 249 kts 100°
2026-04-22 19:31 -15.89584 -54.34043 24994 ft 249 kts 100°
2026-04-22 19:31 -15.89862 -54.32270 24992 ft 249 kts 101°
2026-04-22 19:31 -15.90140 -54.30493 24998 ft 249 kts 100°
2026-04-22 19:32 -15.90417 -54.28718 24998 ft 249 kts 100°
2026-04-22 19:32 -15.90694 -54.26943 24996 ft 249 kts 100°
2026-04-22 19:32 -15.90971 -54.25166 24994 ft 249 kts 100°
2026-04-22 19:32 -15.91248 -54.23393 25000 ft 249 kts 100°
2026-04-22 19:33 -15.91524 -54.21619 24992 ft 249 kts 100°
2026-04-22 19:33 -15.91801 -54.19842 24991 ft 249 kts 100°
2026-04-22 19:33 -15.92077 -54.18069 24993 ft 249 kts 100°
2026-04-22 19:33 -15.92353 -54.16295 24995 ft 249 kts 100°
2026-04-22 19:34 -15.92629 -54.14522 25001 ft 249 kts 100°
2026-04-22 19:34 -15.92905 -54.12748 24997 ft 249 kts 100°
2026-04-22 19:34 -15.93178 -54.10991 24996 ft 249 kts 100°
2026-04-22 19:34 -15.93456 -54.09197 24989 ft 249 kts 100°
2026-04-22 19:35 -15.93732 -54.07422 24993 ft 249 kts 100°
2026-04-22 19:35 -15.94007 -54.05647 24989 ft 249 kts 100°
2026-04-22 19:35 -15.94190 -54.04471 24989 ft 249 kts 100°
2026-04-22 19:35 -15.94558 -54.02096 24997 ft 249 kts 100°
2026-04-22 19:36 -15.94832 -54.00322 24997 ft 249 kts 100°
2026-04-22 19:36 -15.95107 -53.98544 24998 ft 249 kts 100°
2026-04-22 19:36 -15.95382 -53.96767 24992 ft 249 kts 100°
2026-04-22 19:36 -15.95657 -53.94989 24989 ft 249 kts 100°
2026-04-22 19:37 -15.95932 -53.93210 24990 ft 249 kts 100°
2026-04-22 19:37 -15.96203 -53.91453 24989 ft 249 kts 100°
2026-04-22 19:37 -15.96478 -53.89675 24990 ft 249 kts 100°
2026-04-22 19:37 -15.96752 -53.87897 24991 ft 249 kts 100°
2026-04-22 19:38 -15.97025 -53.86119 24993 ft 249 kts 100°
2026-04-22 19:38 -15.97300 -53.84342 24992 ft 249 kts 100°
2026-04-22 19:38 -15.97573 -53.82566 24989 ft 249 kts 100°
2026-04-22 19:38 -15.97846 -53.80792 24992 ft 249 kts 100°
2026-04-22 19:39 -15.98119 -53.79017 24993 ft 249 kts 100°
2026-04-22 19:39 -15.98392 -53.77244 24992 ft 249 kts 100°
2026-04-22 19:39 -15.98664 -53.75468 24994 ft 249 kts 101°
2026-04-22 19:39 -15.98937 -53.73692 24993 ft 249 kts 101°
2026-04-22 19:40 -15.99209 -53.71920 24993 ft 249 kts 100°
2026-04-22 19:40 -15.99481 -53.70146 24999 ft 249 kts 101°
2026-04-22 19:40 -15.99754 -53.68370 24990 ft 249 kts 101°
2026-04-22 19:40 -16.00026 -53.66596 24994 ft 249 kts 101°
2026-04-22 19:41 -16.00297 -53.64819 24993 ft 249 kts 101°
2026-04-22 19:41 -16.00569 -53.63043 24993 ft 249 kts 101°
2026-04-22 19:41 -16.00841 -53.61263 24990 ft 249 kts 101°
2026-04-22 19:41 -16.01113 -53.59485 24987 ft 249 kts 101°
2026-04-22 19:42 -16.01385 -53.57708 24993 ft 249 kts 101°
2026-04-22 19:42 -16.01657 -53.55929 24996 ft 249 kts 101°
2026-04-22 19:42 -16.01928 -53.54148 24990 ft 250 kts 101°
2026-04-22 19:42 -16.02200 -53.52366 24994 ft 250 kts 101°
2026-04-22 19:43 -16.02744 -53.48798 24993 ft 250 kts 100°
2026-04-22 19:43 -16.03016 -53.47010 24992 ft 250 kts 101°
2026-04-22 19:43 -16.03288 -53.45227 24994 ft 249 kts 101°
2026-04-22 19:44 -16.03558 -53.43449 25003 ft 249 kts 101°
2026-04-22 19:44 -16.03828 -53.41671 24994 ft 249 kts 101°
2026-04-22 19:44 -16.04097 -53.39897 24996 ft 248 kts 101°
2026-04-22 19:44 -16.04366 -53.38124 24995 ft 248 kts 101°
2026-04-22 19:45 -16.04636 -53.36352 25002 ft 248 kts 101°
2026-04-22 19:45 -16.04904 -53.34582 24994 ft 248 kts 101°
2026-04-22 19:45 -16.05172 -53.32812 24997 ft 248 kts 101°
2026-04-22 19:45 -16.05440 -53.31042 24991 ft 248 kts 101°
2026-04-22 19:46 -16.05708 -53.29274 24994 ft 248 kts 101°
2026-04-22 19:46 -16.05976 -53.27504 24995 ft 248 kts 101°
2026-04-22 19:46 -16.06240 -53.25751 24994 ft 248 kts 101°
2026-04-22 19:46 -16.06510 -53.23966 24994 ft 248 kts 101°
2026-04-22 19:47 -16.06778 -53.22193 24991 ft 248 kts 101°
2026-04-22 19:47 -16.07046 -53.20422 24992 ft 248 kts 101°
2026-04-22 19:47 -16.07223 -53.19249 24995 ft 248 kts 101°
2026-04-22 19:47 -16.07580 -53.16882 24990 ft 248 kts 100°
2026-04-22 19:48 -16.07846 -53.15111 24998 ft 248 kts 101°
2026-04-22 19:48 -16.08113 -53.13341 24991 ft 248 kts 101°
2026-04-22 19:48 -16.08380 -53.11570 24992 ft 248 kts 101°
2026-04-22 19:48 -16.08646 -53.09803 24989 ft 248 kts 101°
2026-04-22 19:49 -16.08911 -53.08035 24990 ft 247 kts 101°
2026-04-22 19:49 -16.09176 -53.06268 24993 ft 247 kts 100°
2026-04-22 19:49 -16.09442 -53.04501 24991 ft 247 kts 101°
2026-04-22 19:49 -16.09707 -53.02736 24986 ft 247 kts 101°
2026-04-22 19:50 -16.09972 -53.00969 24987 ft 248 kts 101°
2026-04-22 19:50 -16.10237 -52.99200 24992 ft 248 kts 100°
2026-04-22 19:50 -16.10502 -52.97430 24987 ft 248 kts 101°
2026-04-22 19:50 -16.10768 -52.95658 24988 ft 248 kts 101°
2026-04-22 19:51 -16.11036 -52.93886 24986 ft 248 kts 101°
2026-04-22 19:51 -16.11313 -52.92115 24984 ft 248 kts 101°
2026-04-22 19:51 -16.11581 -52.90346 24986 ft 248 kts 100°
2026-04-22 19:51 -16.11843 -52.88576 24986 ft 248 kts 101°
2026-04-22 19:52 -16.12020 -52.87404 24985 ft 248 kts 101°
2026-04-22 19:52 -16.12297 -52.85636 24988 ft 248 kts 101°
2026-04-22 19:52 -16.12564 -52.83867 24984 ft 248 kts 100°
2026-04-22 19:52 -16.12826 -52.82093 24989 ft 248 kts 101°
2026-04-22 19:53 -16.13089 -52.80322 24988 ft 248 kts 101°
2026-04-22 19:53 -16.13352 -52.78550 24987 ft 248 kts 101°
2026-04-22 19:53 -16.13616 -52.76779 24987 ft 248 kts 101°
2026-04-22 19:53 -16.13880 -52.75006 24991 ft 248 kts 101°
2026-04-22 19:54 -16.14143 -52.73235 24984 ft 248 kts 100°
2026-04-22 19:54 -16.14406 -52.71464 24986 ft 248 kts 100°
2026-04-22 19:54 -16.14669 -52.69692 24982 ft 248 kts 100°
2026-04-22 19:54 -16.14931 -52.67920 24990 ft 248 kts 100°
2026-04-22 19:55 -16.15121 -52.66643 24984 ft 248 kts 100°
2026-04-22 19:55 -16.15383 -52.64873 24983 ft 248 kts 101°
2026-04-22 19:55 -16.15646 -52.63101 24982 ft 248 kts 100°
2026-04-22 19:55 -16.15937 -52.61334 24991 ft 248 kts 103°
2026-04-22 19:56 -16.16313 -52.59585 24992 ft 248 kts 104°
2026-04-22 19:56 -16.16675 -52.57836 24996 ft 248 kts 103°
2026-04-22 19:56 -16.17011 -52.56077 24987 ft 248 kts 103°
2026-04-22 19:56 -16.17347 -52.54314 24984 ft 248 kts 103°
2026-04-22 19:57 -16.17688 -52.52559 24986 ft 248 kts 103°
2026-04-22 19:57 -16.18029 -52.50804 24988 ft 248 kts 103°
2026-04-22 19:57 -16.18370 -52.49048 24985 ft 248 kts 103°
2026-04-22 19:57 -16.18709 -52.47292 24988 ft 248 kts 103°
2026-04-22 19:58 -16.19049 -52.45537 24994 ft 247 kts 103°
2026-04-22 19:58 -16.19388 -52.43784 24987 ft 247 kts 103°
2026-04-22 19:58 -16.19727 -52.42030 24992 ft 247 kts 103°
2026-04-22 19:58 -16.20066 -52.40278 24988 ft 247 kts 103°
2026-04-22 19:59 -16.20405 -52.38524 24990 ft 247 kts 103°
2026-04-22 20:00 -16.22432 -52.28017 24991 ft 247 kts 103°
2026-04-22 20:00 -16.22769 -52.26267 24989 ft 246 kts 103°
2026-04-22 20:01 -16.23105 -52.24522 24992 ft 246 kts 103°
2026-04-22 20:01 -16.23441 -52.22775 24990 ft 246 kts 103°
2026-04-22 20:01 -16.23778 -52.21027 24988 ft 246 kts 103°
2026-04-22 20:01 -16.24113 -52.19282 24994 ft 246 kts 102°
2026-04-22 20:02 -16.24448 -52.17537 24995 ft 246 kts 102°
2026-04-22 20:02 -16.24783 -52.15794 24995 ft 246 kts 102°
2026-04-22 20:02 -16.25118 -52.14050 24991 ft 246 kts 102°
2026-04-22 20:02 -16.25452 -52.12307 24997 ft 246 kts 102°
2026-04-22 20:03 -16.25786 -52.10565 25000 ft 245 kts 102°
2026-04-22 20:03 -16.26121 -52.08822 24998 ft 246 kts 102°
2026-04-22 20:03 -16.26455 -52.07079 24994 ft 246 kts 102°
2026-04-22 20:03 -16.26789 -52.05334 24991 ft 246 kts 102°
2026-04-22 20:04 -16.27118 -52.03614 24990 ft 246 kts 102°
2026-04-22 20:04 -16.27451 -52.01872 24987 ft 245 kts 102°
2026-04-22 20:04 -16.27784 -52.00132 24989 ft 245 kts 102°
2026-04-22 20:04 -16.28118 -51.98389 24999 ft 245 kts 102°
2026-04-22 20:05 -16.28450 -51.96650 24996 ft 245 kts 102°
2026-04-22 20:05 -16.28783 -51.94908 24995 ft 245 kts 102°
2026-04-22 20:05 -16.29115 -51.93166 24994 ft 245 kts 102°
2026-04-22 20:05 -16.29448 -51.91424 24991 ft 245 kts 102°
2026-04-22 20:06 -16.29780 -51.89684 24990 ft 245 kts 102°
2026-04-22 20:06 -16.30111 -51.87944 24989 ft 245 kts 102°
2026-04-22 20:06 -16.30443 -51.86204 24987 ft 245 kts 102°
2026-04-22 20:06 -16.30774 -51.84463 24991 ft 245 kts 102°
2026-04-22 20:07 -16.31106 -51.82723 24990 ft 245 kts 102°
2026-04-22 20:07 -16.31437 -51.80981 24994 ft 245 kts 102°
2026-04-22 20:07 -16.31767 -51.79244 24991 ft 245 kts 102°
2026-04-22 20:07 -16.32098 -51.77505 24990 ft 245 kts 102°
2026-04-22 20:08 -16.32429 -51.75765 24988 ft 245 kts 102°
2026-04-22 20:08 -16.32759 -51.74026 24991 ft 245 kts 102°
2026-04-22 20:08 -16.33090 -51.72286 24989 ft 245 kts 102°
2026-04-22 20:08 -16.33420 -51.70545 24996 ft 245 kts 102°
2026-04-22 20:09 -16.33750 -51.68806 24999 ft 245 kts 102°
2026-04-22 20:09 -16.34080 -51.67066 25000 ft 245 kts 102°
2026-04-22 20:09 -16.34409 -51.65326 25000 ft 245 kts 102°
2026-04-22 20:09 -16.34740 -51.63583 24994 ft 245 kts 102°
2026-04-22 20:10 -16.35069 -51.61840 24996 ft 245 kts 102°
2026-04-22 20:10 -16.35399 -51.60098 24998 ft 245 kts 102°
2026-04-22 20:10 -16.35729 -51.58357 24996 ft 245 kts 102°
2026-04-22 20:10 -16.36058 -51.56615 24999 ft 245 kts 102°
2026-04-22 20:11 -16.36387 -51.54872 24998 ft 245 kts 102°
2026-04-22 20:11 -16.36712 -51.53153 24997 ft 245 kts 102°
2026-04-22 20:11 -16.37041 -51.51411 24998 ft 245 kts 102°
2026-04-22 20:11 -16.37371 -51.49666 25000 ft 246 kts 102°
2026-04-22 20:12 -16.37704 -51.47896 25003 ft 246 kts 102°
2026-04-22 20:12 -16.38029 -51.46174 25003 ft 246 kts 102°
2026-04-22 20:12 -16.38251 -51.44995 25001 ft 246 kts 102°
2026-04-22 20:12 -16.38686 -51.42687 25007 ft 245 kts 102°
2026-04-22 20:13 -16.39014 -51.40943 25001 ft 245 kts 102°
2026-04-22 20:13 -16.39342 -51.39199 25006 ft 245 kts 102°
2026-04-22 20:13 -16.39670 -51.37458 25010 ft 245 kts 102°
2026-04-22 20:13 -16.39998 -51.35713 25006 ft 245 kts 102°
2026-04-22 20:14 -16.40325 -51.33970 25005 ft 245 kts 102°
2026-04-22 20:14 -16.40652 -51.32230 25005 ft 245 kts 102°
2026-04-22 20:14 -16.40979 -51.30489 25007 ft 245 kts 102°
2026-04-22 20:14 -16.41305 -51.28751 25005 ft 245 kts 102°
2026-04-22 20:15 -16.41631 -51.27011 25009 ft 244 kts 102°
2026-04-22 20:15 -16.41957 -51.25274 25010 ft 244 kts 102°
2026-04-22 20:15 -16.42283 -51.23537 25006 ft 244 kts 101°
2026-04-22 20:15 -16.42608 -51.21799 25006 ft 244 kts 101°
2026-04-22 20:16 -16.42932 -51.20065 25014 ft 244 kts 101°
2026-04-22 20:16 -16.43258 -51.18328 25010 ft 245 kts 101°
2026-04-22 20:16 -16.43583 -51.16589 25018 ft 244 kts 101°
2026-04-22 20:16 -16.43908 -51.14852 25008 ft 244 kts 101°
2026-04-22 20:17 -16.44232 -51.13117 25012 ft 244 kts 101°
2026-04-22 20:17 -16.44557 -51.11378 25008 ft 244 kts 101°
2026-04-22 20:17 -16.44881 -51.09642 25013 ft 244 kts 101°
2026-04-22 20:17 -16.45205 -51.07906 25010 ft 244 kts 101°
2026-04-22 20:18 -16.45528 -51.06172 25013 ft 244 kts 101°
2026-04-22 20:18 -16.45851 -51.04437 25012 ft 244 kts 101°
2026-04-22 20:18 -16.46175 -51.02702 25019 ft 244 kts 101°
2026-04-22 20:18 -16.46498 -51.00967 25012 ft 244 kts 101°
2026-04-22 20:19 -16.46821 -50.99233 25022 ft 244 kts 101°
2026-04-22 20:19 -16.47143 -50.97498 25014 ft 244 kts 101°
2026-04-22 20:19 -16.47466 -50.95764 25012 ft 244 kts 101°
2026-04-22 20:19 -16.47788 -50.94030 25019 ft 244 kts 101°
2026-04-22 20:20 -16.48110 -50.92296 25015 ft 244 kts 101°
2026-04-22 20:20 -16.48428 -50.90584 25014 ft 244 kts 101°
2026-04-22 20:20 -16.48749 -50.88854 25026 ft 243 kts 101°
2026-04-22 20:20 -16.49071 -50.87121 25015 ft 243 kts 101°
2026-04-22 20:21 -16.49391 -50.85391 25017 ft 243 kts 101°
2026-04-22 20:21 -16.49712 -50.83659 25016 ft 244 kts 101°
2026-04-22 20:21 -16.50033 -50.81927 25022 ft 243 kts 101°
2026-04-22 20:21 -16.50354 -50.80196 25020 ft 243 kts 101°
2026-04-22 20:22 -16.50674 -50.78466 25021 ft 243 kts 101°
2026-04-22 20:22 -16.50994 -50.76735 25022 ft 243 kts 101°
2026-04-22 20:22 -16.51314 -50.75005 25027 ft 243 kts 101°
2026-04-22 20:22 -16.51634 -50.73273 25020 ft 244 kts 101°
2026-04-22 20:23 -16.51955 -50.71538 25022 ft 244 kts 101°
2026-04-22 20:23 -16.52275 -50.69804 25023 ft 244 kts 101°
2026-04-22 20:23 -16.52595 -50.68071 25029 ft 244 kts 101°
2026-04-22 20:23 -16.52915 -50.66336 25028 ft 244 kts 101°
2026-04-22 20:24 -16.53235 -50.64600 25018 ft 244 kts 101°
2026-04-22 20:24 -16.53555 -50.62863 25020 ft 244 kts 101°
2026-04-22 20:24 -16.53875 -50.61128 25024 ft 244 kts 101°
2026-04-22 20:24 -16.54195 -50.59390 25019 ft 244 kts 101°
2026-04-22 20:25 -16.54514 -50.57656 25019 ft 244 kts 101°
2026-04-22 20:25 -16.54832 -50.55928 25019 ft 244 kts 101°
2026-04-22 20:25 -16.55150 -50.54194 25018 ft 244 kts 101°
2026-04-22 20:25 -16.55469 -50.52459 25020 ft 244 kts 101°
2026-04-22 20:26 -16.55787 -50.50728 25022 ft 244 kts 101°
2026-04-22 20:26 -16.56105 -50.48994 25023 ft 243 kts 101°
2026-04-22 20:26 -16.56423 -50.47261 25028 ft 244 kts 101°
2026-04-22 20:26 -16.56741 -50.45527 25029 ft 244 kts 101°
2026-04-22 20:27 -16.57055 -50.43814 25023 ft 244 kts 101°
2026-04-22 20:27 -16.57374 -50.42078 25031 ft 244 kts 101°
2026-04-22 20:27 -16.57692 -50.40340 25026 ft 244 kts 101°
2026-04-22 20:27 -16.58010 -50.38604 25020 ft 244 kts 101°
2026-04-22 20:28 -16.58327 -50.36866 25026 ft 244 kts 101°
2026-04-22 20:28 -16.58644 -50.35134 25031 ft 243 kts 101°
2026-04-22 20:28 -16.58961 -50.33399 25034 ft 244 kts 101°
2026-04-22 20:28 -16.59279 -50.31660 25026 ft 244 kts 101°
2026-04-22 20:29 -16.59596 -50.29923 25027 ft 244 kts 101°
2026-04-22 20:29 -16.59913 -50.28184 25024 ft 244 kts 101°
2026-04-22 20:29 -16.60231 -50.26446 25027 ft 244 kts 101°
2026-04-22 20:29 -16.60548 -50.24706 25027 ft 244 kts 101°
2026-04-22 20:30 -16.60865 -50.22963 25029 ft 245 kts 101°
2026-04-22 20:30 -16.61182 -50.21223 25028 ft 245 kts 101°
2026-04-22 20:30 -16.61500 -50.19480 25027 ft 245 kts 101°
2026-04-22 20:30 -16.61817 -50.17737 25031 ft 245 kts 101°
2026-04-22 20:31 -16.62134 -50.15995 25034 ft 245 kts 101°
2026-04-22 20:31 -16.62451 -50.14253 25029 ft 245 kts 101°
2026-04-22 20:31 -16.62767 -50.12509 25032 ft 245 kts 101°
2026-04-22 20:31 -16.63084 -50.10764 25030 ft 245 kts 101°
2026-04-22 20:32 -16.63401 -50.09018 25010 ft 246 kts 101°
2026-04-22 20:32 -16.63727 -50.07234 24786 ft 255 kts 101°
2026-04-22 20:32 -16.64062 -50.05383 24472 ft 265 kts 101°
2026-04-22 20:32 -16.64411 -50.03465 24123 ft 273 kts 101°
2026-04-22 20:33 -16.64770 -50.01499 23761 ft 279 kts 101°
2026-04-22 20:33 -16.65135 -49.99493 23358 ft 284 kts 101°
2026-04-22 20:33 -16.65229 -49.98974 23257 ft 0 kts 101°